Location: Newark
(11.2914°S, 14.4718°E)
Time: 15:54:29
(UTC+00:00)

Tiros 1 despin weight - Pass Details

Date: 24 September 2019
Orbit: 594 x 643 km, 48.2° (Epoch: 15 October)

Event Time Altitude Azimuth Distance (km) Brightness Sun altitude
Rises 06:28:15 0° 231° (SW) 2,949 ? 23.1°
Reaches altitude 10° 06:30:40 10° 237° (WSW) 2,036 ? 23.7°
Maximum altitude 06:35:07 43° 308° (NW) 898 ? 24.8°
Drops below altitude 10° 06:39:32 10° 20° (NNE) 2,013 ? 25.8°
Sets 06:41:56 0° 27° (NNE) 2,911 ? 26.4°
